| time (UTC) | temp F | wind direction | speed knots | gust knots | rain 1hr in | rain 24hr in | rain mn in | humidity % | barometer mb |
| 20260505122055 | 63 | 194 | 3.5 | 8.7 | 0.00 | 0.00 | 0.00 | 69 | 1006.5 |
| 20260505121600 | 63 | 211 | 4.3 | 10.4 | 0.00 | 0.00 | 0.00 | 68 | 1006.4 |
| 20260505121503 | 63 | 114 | 3.5 | 12.2 | 0.00 | 0.00 | 0.00 | 68 | 1006.3 |
| 20260505121012 | 63 | 200 | 3.5 | 12.2 | 0.00 | 0.00 | 0.00 | 69 | 1006.3 |
| 20260505120526 | 63 | 232 | 4.3 | 11.3 | 0.00 | 0.00 | 0.00 | 69 | 1006.3 |
| 20260505120015 | 63 | 165 | 3.5 | 9.6 | 0.00 | 0.00 | 0.00 | 69 | 1006.2 |
| 20260505115529 | 63 | 251 | 1.7 | 9.6 | 0.00 | 0.00 | 0.00 | 69 | 1006.2 |
| 20260505115040 | 63 | 212 | 3.5 | 9.6 | 0.00 | 0.00 | 0.00 | 69 | 1006.3 |
| 20260505114545 | 63 | 142 | 3.5 | 8.7 | 0.00 | 0.00 | 0.00 | 69 | 1006.2 |
| 20260505114042 | 63 | 84 | 1.7 | 7.8 | 0.00 | 0.00 | 0.00 | 70 | 1006.2 |
| 20260505113600 | 63 | 171 | 2.6 | 8.7 | 0.00 | 0.00 | 0.00 | 69 | 1006.2 |
| 20260505113104 | 63 | 105 | 5.2 | 8.7 | 0.00 | 0.00 | 0.00 | 69 | 1006.1 |
| 20260505112553 | 62 | 86 | 2.6 | 8.7 | 0.00 | 0.00 | 0.00 | 70 | 1006.2 |
| 20260505112007 | 62 | 214 | 2.6 | 8.7 | 0.00 | 0.00 | 0.00 | 70 | 1006.1 |
| 20260505111520 | 62 | 194 | 2.6 | 8.7 | 0.00 | 0.00 | 0.00 | 70 | 1006.1 |
| 20260505111006 | 62 | 242 | 0.9 | 7.0 | 0.00 | 0.00 | 0.00 | 70 | 1006.1 |
| 20260505110519 | 62 | 171 | 0.9 | 8.7 | 0.00 | 0.00 | 0.00 | 70 | 1006.1 |
| 20260505102055 | 63 | 213 | 0.9 | 7.8 | 0.00 | 0.00 | 0.00 | 69 | 1006.1 |
| 20260505101512 | 63 | 219 | 2.6 | 7.0 | 0.00 | 0.00 | 0.00 | 69 | 1006.0 |
| 20260505101022 | 63 | 192 | 1.7 | 8.7 | 0.00 | 0.00 | 0.00 | 69 | 1006.0 |
| 20260505100529 | 63 | 86 | 2.6 | 9.6 | 0.00 | 0.00 | 0.00 | 69 | 1005.8 |
| 20260505100029 | 63 | 237 | 3.5 | 12.2 | 0.00 | 0.00 | 0.00 | 69 | 1005.8 |
| 20260505095535 | 63 | 257 | 5.2 | 12.2 | 0.00 | 0.00 | 0.00 | 69 | 1005.7 |
| 20260505095053 | 63 | 305 | 4.3 | 10.4 | 0.00 | 0.00 | 0.00 | 69 | 1005.6 |
| 20260505094535 | 63 | 265 | 1.7 | 10.4 | 0.00 | 0.00 | 0.00 | 68 | 1005.4 |
| 20260505094047 | 63 | 189 | 3.5 | 11.3 | 0.00 | 0.00 | 0.00 | 68 | 1005.4 |
| 20260505093509 | 64 | 203 | 4.3 | 11.3 | 0.00 | 0.00 | 0.00 | 68 | 1005.3 |
| 20260505093057 | 64 | 231 | 5.2 | 12.2 | 0.00 | 0.00 | 0.00 | 68 | 1005.2 |
| 20260505092508 | 64 | 69 | 4.3 | 12.2 | 0.00 | 0.00 | 0.00 | 68 | 1005.4 |
| 20260505092026 | 64 | 232 | 2.6 | 10.4 | 0.00 | 0.00 | 0.00 | 68 | 1005.3 |
| 20260505091541 | 64 | 181 | 3.5 | 18.2 | 0.00 | 0.00 | 0.00 | 67 | 1005.4 |
| 20260505091027 | 64 | 192 | 4.3 | 18.2 | 0.00 | 0.00 | 0.00 | 67 | 1005.3 |
| 20260505090535 | 64 | 107 | 3.5 | 16.5 | 0.00 | 0.00 | 0.00 | 67 | 1005.2 |
| 20260505090106 | 64 | 67 | 4.3 | 17.4 | 0.00 | 0.00 | 0.00 | 66 | 1005.1 |
| 20260505085540 | 64 | 128 | 5.2 | 17.4 | 0.00 | 0.00 | 0.00 | 66 | 1005.2 |
| 20260505085056 | 64 | 146 | 4.3 | 11.3 | 0.00 | 0.00 | 0.00 | 66 | 1005.2 |
| 20260505084509 | 64 | 159 | 3.5 | 9.6 | 0.00 | 0.00 | 0.00 | 66 | 1005.2 |
| 20260505084013 | 64 | 186 | 3.5 | 13.0 | 0.00 | 0.00 | 0.00 | 66 | 1005.3 |
| 20260505083511 | 64 | 115 | 5.2 | 13.0 | 0.00 | 0.00 | 0.00 | 66 | 1005.3 |
| 20260505083028 | 64 | 211 | 3.5 | 11.3 | 0.00 | 0.00 | 0.00 | 66 | 1005.2 |
| 20260505082536 | 64 | 170 | 3.5 | 11.3 | 0.00 | 0.00 | 0.00 | 67 | 1004.8 |
| 20260505082030 | 64 | 194 | 2.6 | 9.6 | 0.00 | 0.00 | 0.00 | 67 | 1005.0 |
| 20260505081546 | 64 | 259 | 4.3 | 12.2 | 0.00 | 0.00 | 0.00 | 67 | 1005.1 |
| 20260505081056 | 65 | 221 | 1.7 | 18.2 | 0.00 | 0.00 | 0.00 | 68 | 1004.9 |
| 20260505080552 | 65 | 154 | 3.5 | 18.2 | 0.00 | 0.00 | 0.00 | 67 | 1004.9 |
| 20260505080059 | 65 | 213 | 3.5 | 7.8 | 0.00 | 0.00 | 0.00 | 66 | 1004.9 |
| 20260505075509 | 65 | 339 | 3.5 | 7.8 | 0.00 | 0.00 | 0.00 | 67 | 1004.9 |
| 20260505075024 | 65 | 242 | 2.6 | 7.8 | 0.00 | 0.00 | 0.00 | 66 | 1004.9 |
| 20260505074513 | 65 | 213 | 1.7 | 15.6 | 0.00 | 0.00 | 0.00 | 66 | 1004.8 |
| 20260505074028 | 65 | 290 | 5.2 | 15.6 | 0.00 | 0.00 | 0.00 | 66 | 1004.8 |
| 20260505073541 | 65 | 203 | 1.7 | 12.2 | 0.00 | 0.00 | 0.00 | 66 | 1004.8 |
| 20260505073045 | 65 | 234 | 4.3 | 13.9 | 0.00 | 0.00 | 0.00 | 66 | 1004.7 |
| 20260505072545 | 65 | 158 | 4.3 | 13.9 | 0.00 | 0.00 | 0.00 | 66 | 1004.7 |
| 20260505072057 | 65 | 246 | 3.5 | 10.4 | 0.00 | 0.00 | 0.00 | 66 | 1004.6 |
| 20260505071606 | 65 | 222 | 3.5 | 11.3 | 0.00 | 0.00 | 0.00 | 67 | 1004.7 |
| 20260505071059 | 65 | 128 | 3.5 | 11.3 | 0.00 | 0.00 | 0.00 | 66 | 1004.6 |
| 20260505071002 | 65 | 206 | 2.6 | 11.3 | 0.00 | 0.00 | 0.00 | 66 | 1004.5 |
| 20260505070514 | 65 | 204 | 1.7 | 10.4 | 0.00 | 0.00 | 0.00 | 66 | 1004.5 |
| 20260505070030 | 65 | 275 | 3.5 | 11.3 | 0.00 | 0.00 | 0.00 | 66 | 1004.5 |
| 20260505065515 | 65 | 116 | 3.5 | 11.3 | 0.00 | 0.00 | 0.00 | 66 | 1004.5 |
| 20260505065029 | 65 | 193 | 0.9 | 11.3 | 0.00 | 0.00 | 0.00 | 66 | 1004.5 |
| 20260505064539 | 65 | 339 | 3.5 | 11.3 | 0.00 | 0.00 | 0.00 | 66 | 1004.5 |
| 20260505064039 | 65 | 165 | 2.6 | 7.8 | 0.00 | 0.00 | 0.00 | 66 | 1004.5 |
| 20260505063544 | 65 | 193 | 3.5 | 12.2 | 0.00 | 0.00 | 0.00 | 66 | 1004.6 |
| 20260505063101 | 65 | 128 | 4.3 | 12.2 | 0.00 | 0.00 | 0.00 | 66 | 1004.7 |
| 20260505062509 | 65 | 207 | 0.0 | 9.6 | 0.00 | 0.00 | 0.00 | 66 | 1004.7 |
| 20260505062059 | 65 | 216 | 2.6 | 10.4 | 0.00 | 0.00 | 0.00 | 66 | 1004.7 |
| 20260505062001 | 65 | 175 | 2.6 | 10.4 | 0.00 | 0.00 | 0.00 | 66 | 1004.7 |
| 20260505061516 | 66 | 267 | 3.5 | 11.3 | 0.00 | 0.00 | 0.00 | 66 | 1004.9 |
| 20260505061025 | 66 | 126 | 3.5 | 11.3 | 0.00 | 0.00 | 0.00 | 65 | 1004.9 |
| 20260505060513 | 66 | 217 | 3.5 | 13.0 | 0.00 | 0.00 | 0.00 | 66 | 1005.0 |
| 20260505060032 | 66 | 132 | 1.7 | 13.0 | 0.00 | 0.00 | 0.00 | 66 | 1005.0 |
| 20260505055539 | 66 | 180 | 4.3 | 11.3 | 0.00 | 0.00 | 0.00 | 66 | 1005.1 |
| 20260505055050 | 65 | 229 | 2.6 | 9.6 | 0.00 | 0.00 | 0.00 | 67 | 1005.1 |
| 20260505054536 | 65 | 258 | 3.5 | 9.6 | 0.00 | 0.00 | 0.00 | 67 | 1005.1 |
| 20260505054049 | 65 | 192 | 3.5 | 8.7 | 0.00 | 0.00 | 0.00 | 68 | 1005.2 |
| 20260505053559 | 65 | 150 | 1.7 | 9.6 | 0.00 | 0.00 | 0.00 | 69 | 1005.3 |
| 20260505053507 | 65 | 309 | 1.7 | 9.6 | 0.00 | 0.00 | 0.00 | 69 | 1005.3 |
| 20260505053051 | 65 | 95 | 2.6 | 11.3 | 0.00 | 0.00 | 0.00 | 69 | 1005.3 |
| 20260505052520 | 65 | 223 | 2.6 | 11.3 | 0.00 | 0.00 | 0.00 | 68 | 1005.4 |
| 20260505052020 | 65 | 243 | 2.6 | 9.6 | 0.00 | 0.00 | 0.00 | 68 | 1005.4 |
| 20260505051520 | 65 | 124 | 0.9 | 7.8 | 0.00 | 0.00 | 0.00 | 69 | 1005.5 |
| 20260505051022 | 65 | 204 | 2.6 | 7.8 | 0.00 | 0.00 | 0.00 | 68 | 1005.5 |
| 20260505050538 | 65 | 216 | 0.9 | 6.1 | 0.00 | 0.00 | 0.00 | 68 | 1005.5 |
| 20260505050120 | 65 | 257 | 1.7 | 8.7 | 0.00 | 0.00 | 0.00 | 68 | 1005.5 |
| 20260505041546 | 64 | 103 | 1.7 | 7.0 | 0.00 | 0.00 | 0.00 | 70 | 1005.4 |
| 20260505041040 | 64 | 135 | 1.7 | 7.0 | 0.00 | 0.00 | 0.00 | 70 | 1005.4 |
| 20260505040533 | 64 | 203 | 2.6 | 7.0 | 0.00 | 0.00 | 0.00 | 70 | 1005.4 |
| 20260505040053 | 64 | 121 | 0.9 | 3.5 | 0.00 | 0.00 | 0.00 | 70 | 1005.3 |
| 20260505035553 | 64 | 110 | 0.9 | 6.1 | 0.00 | 0.00 | 0.00 | 70 | 1005.4 |
| 20260505035040 | 64 | 216 | 0.9 | 6.1 | 0.00 | 0.00 | 0.00 | 70 | 1005.4 |
| 20260505034548 | 64 | 157 | 1.7 | 5.2 | 0.00 | 0.00 | 0.00 | 71 | 1005.4 |
| 20260505034059 | 64 | 140 | 0.9 | 5.2 | 0.00 | 0.00 | 0.00 | 71 | 1005.4 |
| 20260505034003 | 64 | 197 | 0.9 | 6.1 | 0.00 | 0.00 | 0.00 | 72 | 1005.4 |
| 20260505033516 | 63 | 220 | 1.7 | 6.1 | 0.00 | 0.00 | 0.00 | 71 | 1005.4 |
| 20260505033101 | 63 | 146 | 1.7 | 6.1 | 0.00 | 0.00 | 0.00 | 72 | 1005.3 |
| 20260505033003 | 63 | 128 | 1.7 | 6.1 | 0.00 | 0.00 | 0.00 | 72 | 1005.4 |
| 20260505032521 | 63 | 128 | 0.9 | 6.1 | 0.00 | 0.00 | 0.00 | 72 | 1005.4 |
| 20260505032026 | 63 | 122 | 0.9 | 6.1 | 0.00 | 0.00 | 0.00 | 72 | 1005.3 |
| 20260505031517 | 63 | 157 | 1.7 | 7.0 | 0.00 | 0.00 | 0.00 | 72 | 1005.3 |
| 20260505031024 | 63 | 139 | 1.7 | 7.0 | 0.00 | 0.00 | 0.00 | 72 | 1005.2 |
| 20260505030538 | 63 | 121 | 1.7 | 7.0 | 0.00 | 0.00 | 0.00 | 73 | 1005.2 |
| 20260505030042 | 63 | 132 | 0.9 | 6.1 | 0.00 | 0.00 | 0.00 | 73 | 1005.2 |
| 20260505025540 | 63 | 120 | 0.9 | 6.1 | 0.00 | 0.00 | 0.00 | 72 | 1005.4 |
| 20260505025050 | 63 | 158 | 0.9 | 6.1 | 0.00 | 0.00 | 0.00 | 72 | 1005.4 |
| 20260505024507 | 63 | 134 | 0.9 | 6.1 | 0.00 | 0.00 | 0.00 | 72 | 1005.5 |
| 20260505024052 | 63 | 144 | 0.0 | 4.3 | 0.00 | 0.00 | 0.00 | 72 | 1005.4 |
| 20260505023510 | 63 | 123 | 0.0 | 4.3 | 0.00 | 0.00 | 0.00 | 72 | 1005.4 |
| 20260505023020 | 63 | 116 | 0.9 | 4.3 | 0.00 | 0.00 | 0.00 | 72 | 1005.4 |
| 20260505022513 | 63 | 170 | 0.9 | 6.1 | 0.00 | 0.00 | 0.00 | 72 | 1005.4 |
| 20260505022021 | 63 | 160 | 0.9 | 6.1 | 0.00 | 0.00 | 0.00 | 72 | 1005.4 |
| 20260505021539 | 63 | 127 | 1.7 | 5.2 | 0.00 | 0.00 | 0.00 | 71 | 1005.4 |
| 20260505021044 | 63 | 142 | 0.9 | 5.2 | 0.00 | 0.00 | 0.00 | 71 | 1005.3 |
| 20260505020536 | 63 | 119 | 0.0 | 4.3 | 0.00 | 0.00 | 0.00 | 70 | 1005.4 |
| 20260505020048 | 63 | 166 | 0.0 | 3.5 | 0.00 | 0.00 | 0.00 | 70 | 1005.4 |
| 20260505015507 | 63 | 170 | 0.0 | 2.6 | 0.00 | 0.00 | 0.00 | 69 | 1005.3 |
| 20260505015055 | 64 | 102 | 0.9 | 3.5 | 0.00 | 0.00 | 0.00 | 69 | 1005.2 |
| 20260505014512 | 64 | 158 | 0.0 | 3.5 | 0.00 | 0.00 | 0.00 | 69 | 1005.2 |
| 20260505014022 | 64 | 138 | 0.0 | 3.5 | 0.00 | 0.00 | 0.00 | 69 | 1005.1 |
| 20260505013528 | 64 | 116 | 0.9 | 5.2 | 0.00 | 0.00 | 0.00 | 68 | 1005.1 |
| 20260505013024 | 64 | 101 | 0.9 | 4.3 | 0.00 | 0.00 | 0.00 | 68 | 1005.0 |
| 20260505012538 | 64 | 123 | 1.7 | 4.3 | 0.00 | 0.00 | 0.00 | 67 | 1005.1 |
| 20260505012049 | 64 | 164 | 0.9 | 7.0 | 0.00 | 0.00 | 0.00 | 68 | 1005.1 |
| 20260505011542 | 64 | 148 | 0.9 | 7.0 | 0.00 | 0.00 | 0.00 | 67 | 1005.0 |
| 20260505011052 | 65 | 105 | 0.0 | 3.5 | 0.00 | 0.00 | 0.00 | 67 | 1005.0 |
| 20260505011001 | 65 | 142 | 0.0 | 3.5 | 0.00 | 0.00 | 0.00 | 67 | 1005.1 |
| 20260505010508 | 65 | 142 | 0.0 | 3.5 | 0.00 | 0.00 | 0.00 | 66 | 1005.0 |
| 20260505010006 | 65 | 124 | 0.0 | 5.2 | 0.00 | 0.00 | 0.00 | 66 | 1005.1 |
| 20260505005514 | 65 | 155 | 0.9 | 5.2 | 0.00 | 0.00 | 0.00 | 65 | 1005.0 |
| 20260505005031 | 66 | 121 | 0.0 | 1.7 | 0.00 | 0.00 | 0.00 | 64 | 1005.1 |
| 20260505004544 | 66 | 155 | 0.0 | 5.2 | 0.00 | 0.00 | 0.00 | 64 | 1005.0 |
| 20260505004032 | 66 | 139 | 0.0 | 5.2 | 0.00 | 0.00 | 0.00 | 63 | 1005.0 |
| 20260505003540 | 67 | 143 | 0.0 | 1.7 | 0.00 | 0.00 | 0.00 | 63 | 1005.0 |
| 20260505003057 | 67 | 123 | 0.0 | 4.3 | 0.00 | 0.00 | 0.00 | 62 | 1005.0 |
| 20260505002544 | 67 | 133 | 1.7 | 5.2 | 0.00 | 0.00 | 0.00 | 62 | 1005.0 |
| 20260505002059 | 67 | 106 | 0.0 | 5.2 | 0.00 | 0.00 | 0.00 | 61 | 1005.1 |
| 20260505001509 | 68 | 182 | 0.0 | 4.3 | 0.00 | 0.00 | 0.00 | 61 | 1005.1 |
| 20260505001010 | 68 | 149 | 0.0 | 5.2 | 0.00 | 0.00 | 0.00 | 60 | 1005.2 |
| 20260505000511 | 68 | 117 | 1.7 | 5.2 | 0.00 | 0.00 | 0.00 | 59 | 1005.2 |
| 20260505000030 | 68 | 135 | 0.9 | 5.2 | 0.00 | 0.00 | 0.00 | 59 | 1005.2 |
| 20260504235534 | 68 | 156 | 0.9 | 4.3 | 0.00 | 0.00 | 0.00 | 59 | 1005.2 |
| 20260504235030 | 69 | 198 | 0.9 | 6.1 | 0.00 | 0.00 | 0.00 | 59 | 1005.4 |
| 20260504234551 | 69 | 173 | 1.7 | 6.1 | 0.00 | 0.00 | 0.00 | 59 | 1005.4 |
| 20260504234052 | 69 | 111 | 0.9 | 6.1 | 0.00 | 0.00 | 0.00 | 57 | 1005.3 |
| 20260504233549 | 69 | 128 | 0.9 | 6.1 | 0.00 | 0.00 | 0.00 | 58 | 1005.4 |
| 20260504233104 | 69 | 141 | 2.6 | 8.7 | 0.00 | 0.00 | 0.00 | 58 | 1005.5 |
| 20260504232507 | 69 | 177 | 1.7 | 8.7 | 0.00 | 0.00 | 0.00 | 57 | 1005.5 |
| 20260504232020 | 69 | 125 | 1.7 | 7.8 | 0.00 | 0.00 | 0.00 | 58 | 1005.5 |
| 20260504231526 | 69 | 197 | 1.7 | 8.7 | 0.00 | 0.00 | 0.00 | 57 | 1005.4 |
| 20260504231045 | 70 | 185 | 4.3 | 10.4 | 0.00 | 0.00 | 0.00 | 56 | 1005.4 |
| 20260504230554 | 70 | 229 | 3.5 | 10.4 | 0.00 | 0.00 | 0.00 | 56 | 1005.5 |
| 20260504230016 | 70 | 197 | 1.7 | 11.3 | 0.00 | 0.00 | 0.00 | 58 | 1005.6 |
| 20260504225521 | 70 | 267 | 2.6 | 11.3 | 0.00 | 0.00 | 0.00 | 58 | 1005.5 |
| 20260504225012 | 70 | 180 | 1.7 | 11.3 | 0.00 | 0.00 | 0.00 | 57 | 1005.7 |
| 20260504224524 | 70 | 207 | 5.2 | 11.3 | 0.00 | 0.00 | 0.00 | 57 | 1005.9 |
| 20260504224039 | 70 | 114 | 2.6 | 11.3 | 0.00 | 0.00 | 0.00 | 58 | 1005.8 |
| 20260504223548 | 70 | 306 | 3.5 | 11.3 | 0.00 | 0.00 | 0.00 | 57 | 1006.0 |
| 20260504223004 | 70 | 327 | 2.6 | 7.8 | 0.00 | 0.00 | 0.00 | 58 | 1006.0 |
| 20260504222518 | 70 | 115 | 2.6 | 8.7 | 0.00 | 0.00 | 0.00 | 58 | 1005.9 |
| 20260504222030 | 70 | 186 | 4.3 | 9.6 | 0.00 | 0.00 | 0.00 | 57 | 1005.9 |
| 20260504221542 | 70 | 205 | 4.3 | 9.6 | 0.00 | 0.00 | 0.00 | 57 | 1005.9 |
| 20260504221111 | 70 | 238 | 1.7 | 10.4 | 0.00 | 0.00 | 0.00 | 57 | 1005.7 |
| 20260504220507 | 70 | 188 | 1.7 | 5.2 | 0.00 | 0.00 | 0.00 | 58 | 1005.6 |
| 20260504220012 | 70 | 240 | 0.0 | 5.2 | 0.00 | 0.00 | 0.00 | 58 | 1005.5 |
| 20260504215519 | 70 | 267 | 1.7 | 5.2 | 0.00 | 0.00 | 0.00 | 56 | 1005.2 |
| 20260504215030 | 70 | 190 | 1.7 | 9.6 | 0.00 | 0.00 | 0.00 | 57 | 1005.5 |
| 20260504214540 | 70 | 193 | 4.3 | 9.6 | 0.00 | 0.00 | 0.00 | 55 | 1005.5 |
| 20260504214054 | 70 | 229 | 2.6 | 9.6 | 0.00 | 0.00 | 0.00 | 56 | 1005.7 |
| 20260504213506 | 71 | 259 | 5.2 | 19.1 | 0.00 | 0.00 | 0.00 | 56 | 1005.8 |
| 20260504213043 | 71 | 247 | 5.2 | 17.4 | 0.00 | 0.00 | 0.00 | 54 | 1006.0 |
| 20260504212533 | 71 | 236 | 6.1 | 17.4 | 0.00 | 0.00 | 0.00 | 54 | 1006.3 |
| 20260504212050 | 72 | 155 | 4.3 | 11.3 | 0.00 | 0.00 | 0.00 | 55 | 1006.2 |
| 20260504211604 | 72 | 249 | 2.6 | 13.9 | 0.00 | 0.00 | 0.00 | 54 | 1006.2 |
| 20260504211016 | 72 | 252 | 4.3 | 13.0 | 0.00 | 0.00 | 0.00 | 55 | 1005.9 |
| 20260504210524 | 73 | 173 | 3.5 | 13.9 | 0.00 | 0.00 | 0.00 | 52 | 1006.1 |
| 20260504210040 | 74 | 224 | 2.6 | 13.9 | 0.00 | 0.00 | 0.00 | 51 | 1006.2 |
| 20260504205550 | 74 | 210 | 4.3 | 12.2 | 0.00 | 0.00 | 0.00 | 51 | 1006.2 |
| 20260504205006 | 75 | 200 | 4.3 | 12.2 | 0.00 | 0.00 | 0.00 | 52 | 1006.1 |
| 20260504204519 | 74 | 221 | 4.3 | 10.4 | 0.00 | 0.00 | 0.00 | 52 | 1006.1 |
| 20260504204030 | 73 | 108 | 3.5 | 15.6 | 0.00 | 0.00 | 0.00 | 52 | 1005.9 |
| 20260504203544 | 73 | 200 | 4.3 | 15.6 | 0.00 | 0.00 | 0.00 | 50 | 1006.1 |
| 20260504203117 | 73 | 78 | 4.3 | 15.6 | 0.00 | 0.00 | 0.00 | 51 | 1006.0 |
| 20260504202515 | 73 | 288 | 4.3 | 15.6 | 0.00 | 0.00 | 0.00 | 50 | 1005.8 |
| 20260504202023 | 74 | 199 | 4.3 | 11.3 | 0.00 | 0.00 | 0.00 | 50 | 1005.9 |
| 20260504201538 | 74 | 227 | 5.2 | 11.3 | 0.00 | 0.00 | 0.00 | 50 | 1006.0 |
| 20260504201047 | 74 | 273 | 3.5 | 13.0 | 0.00 | 0.00 | 0.00 | 50 | 1005.9 |
| 20260504200504 | 74 | 317 | 5.2 | 15.6 | 0.00 | 0.00 | 0.00 | 48 | 1005.9 |
| 20260504200017 | 75 | 279 | 6.1 | 15.6 | 0.00 | 0.00 | 0.00 | 48 | 1005.9 |
| 20260504195528 | 75 | 206 | 3.5 | 13.9 | 0.00 | 0.00 | 0.00 | 50 | 1005.8 |
| 20260504195041 | 74 | 91 | 5.2 | 13.0 | 0.00 | 0.00 | 0.00 | 49 | 1005.9 |
| 20260504194602 | 74 | 243 | 5.2 | 13.0 | 0.00 | 0.00 | 0.00 | 49 | 1005.9 |
| 20260504194005 | 75 | 200 | 2.6 | 13.9 | 0.00 | 0.00 | 0.00 | 48 | 1005.8 |
| 20260504193519 | 75 | 85 | 4.3 | 12.2 | 0.00 | 0.00 | 0.00 | 48 | 1005.9 |
| 20260504193034 | 75 | 291 | 4.3 | 12.2 | 0.00 | 0.00 | 0.00 | 47 | 1005.9 |
| 20260504192544 | 76 | 286 | 6.1 | 13.9 | 0.00 | 0.00 | 0.00 | 45 | 1006.1 |
| 20260504192054 | 76 | 321 | 3.5 | 16.5 | 0.00 | 0.00 | 0.00 | 47 | 1006.1 |
| 20260504191511 | 76 | 171 | 6.1 | 16.5 | 0.00 | 0.00 | 0.00 | 47 | 1006.1 |
| 20260504191022 | 76 | 294 | 2.6 | 15.6 | 0.00 | 0.00 | 0.00 | 47 | 1006.1 |
| 20260504190536 | 76 | 217 | 5.2 | 15.6 | 0.00 | 0.00 | 0.00 | 47 | 1006.3 |
| 20260504190048 | 76 | 209 | 6.1 | 13.0 | 0.00 | 0.00 | 0.00 | 48 | 1006.2 |
| 20260504185558 | 75 | 262 | 4.3 | 12.2 | 0.00 | 0.00 | 0.00 | 47 | 1006.2 |
| 20260504185016 | 74 | 184 | 3.5 | 11.3 | 0.00 | 0.00 | 0.00 | 49 | 1006.3 |
| 20260504184524 | 74 | 277 | 1.7 | 13.0 | 0.00 | 0.00 | 0.00 | 49 | 1006.2 |
| 20260504184034 | 74 | 257 | 3.5 | 13.0 | 0.00 | 0.00 | 0.00 | 49 | 1006.2 |
| 20260504183554 | 74 | 215 | 5.2 | 13.0 | 0.00 | 0.00 | 0.00 | 48 | 1006.2 |
| 20260504183101 | 74 | 157 | 3.5 | 19.1 | 0.00 | 0.00 | 0.00 | 49 | 1006.4 |
| 20260504183010 | 74 | 189 | 3.5 | 19.1 | 0.00 | 0.00 | 0.00 | 49 | 1006.3 |
| 20260504182519 | 74 | 21 | 4.3 | 19.1 | 0.00 | 0.00 | 0.00 | 51 | 1006.5 |
| 20260504182032 | 74 | 254 | 4.3 | 12.2 | 0.00 | 0.00 | 0.00 | 50 | 1006.5 |
| 20260504181543 | 74 | 298 | 5.2 | 15.6 | 0.00 | 0.00 | 0.00 | 48 | 1006.6 |
| 20260504181056 | 74 | 211 | 5.2 | 15.6 | 0.00 | 0.00 | 0.00 | 51 | 1006.8 |
| 20260504180507 | 74 | 155 | 3.5 | 10.4 | 0.00 | 0.00 | 0.00 | 50 | 1006.8 |
| 20260504180021 | 73 | 290 | 3.5 | 10.4 | 0.00 | 0.00 | 0.00 | 54 | 1006.8 |
| 20260504175530 | 73 | 294 | 4.3 | 12.2 | 0.00 | 0.00 | 0.00 | 50 | 1006.8 |
| 20260504175046 | 73 | 283 | 4.3 | 15.6 | 0.00 | 0.00 | 0.00 | 51 | 1006.8 |
| 20260504174602 | 72 | 272 | 5.2 | 15.6 | 0.00 | 0.00 | 0.00 | 51 | 1007.0 |
| 20260504174014 | 72 | 138 | 0.9 | 7.8 | 0.00 | 0.00 | 0.00 | 54 | 1007.0 |
| 20260504173521 | 72 | 211 | 2.6 | 9.6 | 0.00 | 0.00 | 0.00 | 51 | 1007.1 |
| 20260504173046 | 72 | 292 | 0.9 | 9.6 | 0.00 | 0.00 | 0.00 | 53 | 1007.0 |
| 20260504172546 | 72 | 265 | 3.5 | 10.4 | 0.00 | 0.00 | 0.00 | 53 | 1007.0 |
| 20260504172103 | 72 | 245 | 2.6 | 8.7 | 0.00 | 0.00 | 0.00 | 52 | 1007.1 |
| 20260504172002 | 71 | 273 | 2.6 | 7.8 | 0.00 | 0.00 | 0.00 | 54 | 1007.2 |
| 20260504171518 | 71 | 274 | 3.5 | 8.7 | 0.00 | 0.00 | 0.00 | 55 | 1007.2 |
| 20260504171026 | 71 | 92 | 2.6 | 9.6 | 0.00 | 0.00 | 0.00 | 54 | 1007.1 |
| 20260504170534 | 70 | 84 | 1.7 | 19.1 | 0.00 | 0.00 | 0.00 | 56 | 1007.3 |
| 20260504151026 | 65 | 256 | 3.5 | 13.0 | 0.00 | 0.00 | 0.00 | 56 | 1008.4 |
| 20260504150542 | 65 | 244 | 4.3 | 13.0 | 0.00 | 0.00 | 0.00 | 57 | 1008.3 |
| 20260504141002 | 62 | 281 | 5.2 | 10.4 | 0.00 | 0.00 | 0.00 | 57 | 1009.3 |
| 20260504140512 | 61 | 192 | 1.7 | 7.8 | 0.00 | 0.00 | 0.00 | 60 | 1009.3 |
| 20260504130559 | 55 | 153 | 2.6 | 9.6 | 0.00 | 0.00 | 0.00 | 64 | 1009.5 |